Regional Weather Roundup
Issued by NWS

Home | Current Version | Previous Version | Graphics & Text | Print | Product List | Glossary On
Versions: 1 2 3 4 5 6 7 8 9 10 11 12 13 14 15 16 17 18 19 20 21 22 23 24 25 26 27 28 29 30 31 32 33 34 35 36 37 38 39 40 41 42 43 44 45 46 47 48 49 50
481
ASUS43 KLOT 290612
RWRIL

ILLINOIS REGIONAL WEATHER ROUNDUP
NATIONAL WEATHER SERVICE CHICAGO/ROMEOVILLE IL
100 AM CDT THU SEP 29 2016

NOTE: "FAIR" INDICATES FEW OR NO CLOUDS BELOW 12,000 FEET WITH NO
SIGNIFICANT WEATHER AND/OR OBSTRUCTIONS TO VISIBILITY.

* THESE STATIONS ARE NOT UNDER NWS QUALITY CONTROL. THEY ALSO MAY NOT
  REPORT WEATHER SUCH AS PRECIPITATION OR FOG.

ILZ001-002-007-009-015-016-024-290700-
NORTHWEST ILLINOIS

CITY           SKY/WX    TMP DP  RH WIND       PRES   REMARKS
MOLINE         CLEAR     56  49  77 N6        30.19S
6HR MIN TEMP:  55; 6HR MAX TEMP:  60;

STERLING*      CLEAR     53  49  86 N9        30.17S
SAVANNA*       CLEAR     52  49  89 N8        30.20S
$$

ILZ003-004-008-010-011-017-018-290700-
NORTH CENTRAL ILLINOIS

CITY           SKY/WX    TMP DP  RH WIND       PRES   REMARKS
ROCKFORD       MOCLDY    56  49  77 N12       30.18S
6HR MIN TEMP:  55; 6HR MAX TEMP:  59;

FREEPORT*      CLEAR     52  49  89 N9        30.20F
ROCHELLE*      CLOUDY    54  50  86 N9        30.14F
DE KALB*       CLOUDY    56  51  85 N12G20    30.13S
$$

ILZ005-006-012>014-019>023-290700-
NORTHEAST ILLINOIS

CITY           SKY/WX    TMP DP  RH WIND       PRES   REMARKS
CHICAGO-OHARE  CLOUDY    60  55  83 N13       30.07S
6HR MIN TEMP:  54; 6HR MAX TEMP:  60; 6HR PCP:  0.18;

CHICAGO-MIDWAY CLOUDY    63  54  72 N10       30.05F
6HR MIN TEMP:  56; 6HR MAX TEMP:  63;

AURORA         MOCLDY    58  52  80 N16       30.09F
6HR MIN TEMP:  58; 6HR MAX TEMP:  60;

LANSING*       CLOUDY    60  56  88 NE7       30.03F
JOLIET*        CLOUDY    59  56  91 N8        30.07S
WAUKEGAN       MOCLDY    59  55  87 N9G17     30.10S
6HR MIN TEMP:  54; 6HR MAX TEMP:  61; 6HR PCP:  0.17;

DUPAGE AIRPORT MOCLDY    57  52  83 N15       30.08F
6HR MIN TEMP:  54; 6HR MAX TEMP:  59; 6HR PCP:  0.04;

KANKAKEE*      LGT RAIN  56  55  95 NW8       30.04F
WHEELING       MOCLDY    60  55  83 N13       30.09F
6HR MIN TEMP:  54; 6HR MAX TEMP:  61; 6HR PCP:  0.06;

MORRIS*        CLOUDY    56  53  92 NW5       30.06F
ROMEOVILLE*    CLOUDY    57  57 100 N10       30.07S
NORTHERLY ISL    N/A     63  54  72 NE14        N/A
$$

LMZ740>746-290700-
SOUTHERN LAKE MICHIGAN

STATION/POSITION SKY/WX   TEMP    WIND        PRES    VSBY  WAVE
                          AIR SEA DIR/SP/G                  HT/PER
                          (F)     (DEG/KT/KT) (MB)    (MI)  (FT/S)
SOUTHERN BUOY              65 69   50/ 25/ 31 1017.4F         7/ 7
WILMETTE HARBOR            63 57   50/ 17/ 23   N/A           8/ 7
HARRISON CRIB              65      30/ 23/ 26   N/A
BURNHAM HARBOR             62      10/ 13/ 19   N/A
CALUMET HARBOR                     10/ 15/ 20 1016.8F
BURNS HARBOR               62      40/ 22/ 24 1016.9S
MICHIGAN CITY              60      20/ 26/ 28   N/A
MICHIGAN CITY 6N           62 66   30/ 19/ 25   N/A           7/ 6
ST. JOSEPH                 60 65   30/ 19/ 23 1016.9          5/ 5
$$

ILZ025>027-034>036-040-047-049-050-058-095>099-290700-
WEST-CENTRAL ILLINOIS

CITY           SKY/WX    TMP DP  RH WIND       PRES   REMARKS
QUINCY         CLEAR     52  49  89 NW10      30.18S
GALESBURG*     CLEAR     51  48  90 NW7       30.17F
MACOMB*        CLEAR     53  49  88 N10       30.20S
JACKSONVILLE*  PTCLDY    52  49  87 NW5       30.14S
PITTSFIELD*    PTCLDY    54  50  87 NW7       30.16F
$$

ILZ028>032-037-038-041>044-048-051>054-059>061-290700-
CENTRAL ILLINOIS

CITY           SKY/WX    TMP DP  RH WIND       PRES   REMARKS
PONTIAC        CLOUDY    55  54  96 N7        30.08F
BLOOMINGTON    CLOUDY    56  50  80 N20       30.07F
DECATUR        CLOUDY    58  49  72 NW14      30.06F
PEORIA         PTCLDY    54  50  86 VRB5      30.12F
6HR MIN TEMP:  54; 6HR MAX TEMP:  58;

LACON*         CLOUDY    55  48  79 N8        30.11F
LINCOLN*       MOCLDY    55  51  87 NW7       30.09F
SPRINGFIELD    CLEAR     55  50  83 NW10      30.10F
6HR MIN TEMP:  55; 6HR MAX TEMP:  58;

TAYLORVILLE    PTCLDY    54  49  83 NW9       30.08F
6HR MIN TEMP:  53; 6HR MAX TEMP:  58;

$$

ILZ033-039-045-046-055>057-062-063-290700-
EAST-CENTRAL ILLINOIS

CITY           SKY/WX    TMP DP  RH WIND       PRES   REMARKS
CHAMPAIGN      CLOUDY    56  51  84 N15G23    30.03F
RANTOUL*       CLOUDY    57  55  91 N12G18    30.03S
MATTOON        CLOUDY    56  49  77 NW14      30.02F
PARIS*         CLOUDY    55  52  92 CALM      30.02F
$$

ILZ079-100>102-290700-
SOUTHWEST ILLINOIS

CITY           SKY/WX    TMP DP  RH WIND       PRES   REMARKS
BELLEVILLE     CLEAR     54  51  87 NW10      30.09F
CAHOKIA*       CLEAR     58  48  69 NW10      30.12S
SPARTA*        CLEAR     51  48  90 CALM      30.11F
$$

ILZ064>066-069>071-074>076-080>082-084>086-088>090-092>094-290700-
SOUTH-CENTRAL ILLINOIS

CITY           SKY/WX    TMP DP  RH WIND       PRES   REMARKS
CARBONDALE     CLEAR     52  49  89 NW6       30.09F
6HR MIN TEMP:  52; 6HR MAX TEMP:  59;

CAIRO*         PTCLDY    51  47  87 NW6       30.09F
EFFINGHAM*     PTCLDY    53  51  94 W6        30.06S
MARION         CLEAR     55  50  82 CALM      30.08F
MT. VERNON     CLEAR     52  45  76 CALM      30.07F
CENTRALIA*     CLEAR     55  51  87 W7        30.06F
SALEM*         CLEAR     54  49  85 NW7       30.07F
METROPOLIS*    CLEAR     52  48  86 CALM      30.09S
$$

ILZ067-068-072-073-078-083-087-091-290700-
SOUTHEAST ILLINOIS

CITY           SKY/WX    TMP DP  RH WIND       PRES   REMARKS
LAWRENCEVILLE  CLEAR     53  48  83 NW5       30.02F
FLORA*         CLEAR     54  50  86 W8        30.05F
FAIRFIELD*       N/A     51  49  93 CALM      30.04F
HARRISBURG*    CLEAR     53  50  87 NW6       30.07F
ROBINSON*      CLOUDY    52  50  92 NW6       30.03S
CARMI*         PTCLDY    52  49  90 W10       30.04F
$$

ABBREVIATIONS USED IN REMARKS
   TC - TEMPERATURE IN CELSIUS
  WCI - WIND CHILL INDEX
   HX - HEAT INDEX
  VSB - VISIBILITY
$$





USA.gov is the U.S. government's official web portal to all federal, state and local government web resources and services.